Regional Weather Roundup
Issued by NWS Charleston, WV

Home | Current Version | Previous Version | Text Only | Print | Product List | Glossary Off
Versions: 1 2 3 4 5 6 7 8 9 10 11 12 13 14 15 16 17 18 19 20 21 22 23 24 25 26 27

000
ASUS41 KRLX 151910
RWRRLX
West Virginia Regional Weather Roundup
National Weather Service Charleston WV
300 PM EDT TUE APR 15 2014

Note: "fair" indicates few or no clouds below 12,000 feet with no
significant weather and/or obstructions to visibility.

WVZ003-152000-
Northern Panhandle of West Virginia

CITY           SKY/WX    TMP DP  RH WIND       PRES   REMARKS
WHEELING       LGT SNOW  31  28  89 W15G26    29.92R FOG
$$

WVZ009-152000-
Northwest West Virginia

CITY           SKY/WX    TMP DP  RH WIND       PRES   REMARKS
PARKERSBURG    CLOUDY    36  29  75 W10G21    30.02R
$$

WVZ006-152000-
Western West Virginia

CITY           SKY/WX    TMP DP  RH WIND       PRES   REMARKS
HUNTINGTON     CLOUDY    34  27  75 NW10G21   30.04S
$$

WVZ015-152000-
West Central West Virginia

CITY           SKY/WX    TMP DP  RH WIND       PRES   REMARKS
CHARLESTON     LGT SNOW  37  34  89 NW8       29.98S FOG
$$

WVZ031-152000-
North Central West Virginia

CITY           SKY/WX    TMP DP  RH WIND       PRES   REMARKS
CLARKSBURG     LGT SNOW  34  31  88 NW12      29.91R FOG
MORGANTOWN     LGT RAIN  37  32  82 NW10G17   29.92R
$$

WVZ035-042-045-152000-
South Central West Virginia

CITY           SKY/WX    TMP DP  RH WIND       PRES   REMARKS
BECKLEY        LGT SNOW  31  28  89 NW9       29.89S VSB 1
BLUEFIELD      LGT SNOW  34  28  79 NW12G20   29.86R
LEWISBURG      CLOUDY    32  31  94 W5        29.85F VSB 1
$$

WVZ047-152000-
Northern Mountains of West Virginia

CITY           SKY/WX    TMP DP  RH WIND       PRES   REMARKS
ELKINS         LGT SNOW  34  29  82 W9        29.90R
$$

WVZ052-152000-
Eastern Panhandle of West Virginia

CITY           SKY/WX    TMP DP  RH WIND       PRES   REMARKS
MARTINSBURG    CLOUDY    46  38  73 NW13      29.74R
PETERSBURG     LGT RAIN  49  35  60 W7        29.80R
$$



USA.gov is the U.S. government's official web portal to all federal, state and local government web resources and services.